Regional Weather Roundup
Issued by NWS Cleveland, OH

Home | Current Version | Previous Version | Graphics & Text | Print | Product List | Glossary On
Versions: 1 2 3 4 5 6 7 8 9 10 11 12 13 14 15 16 17 18 19 20 21 22 23 24 25 26 27 28 29 30 31 32 33 34 35 36 37 38 39 40 41 42 43 44 45 46 47 48 49 50
000
ASUS41 KCLE 102302
RWRCLE
OHIO REGIONAL WEATHER ROUNDUP
NATIONAL WEATHER SERVICE CLEVELAND, OH
600 PM EST SUN DEC 10 2017

NOTE: "FAIR" INDICATES FEW OR NO CLOUDS BELOW 12,000 FEET WITH NO
SIGNIFICANT WEATHER AND/OR OBSTRUCTIONS TO VISIBILITY.

OHZ001>008-015>018-024>027-034-035-043-044-110000-
   NORTHWEST OHIO

CITY           SKY/WX    TMP DP  RH WIND       PRES   REMARKS
DEFIANCE       CLOUDY    30  20  66 SW5       29.95R WCI  25
FINDLAY        CLOUDY    31  18  58 SW12      29.96R WCI  22
TOLEDO EXPRESS CLOUDY    29  22  75 SW6       29.95R WCI  23
TOLEDO EXEC    CLOUDY    30  20  66 SW8       29.97R WCI  22
LIMA           CLOUDY    30  21  69 SW8       29.96R WCI  22
$$

OHZ009>014-019>023-028>033-038-089-110000-
   NORTHEAST OHIO

CITY           SKY/WX    TMP DP  RH WIND       PRES   REMARKS
CLE-HOPKINS    CLOUDY    30  18  60 SW10      29.98R WCI  21
CLE-LAKEFRONT  CLOUDY    30  16  56 SW13      29.96R WCI  20
CUY CO. ARPT   CLOUDY    30  19  64 SW18      29.95R WCI  18
LORAIN-ELYRIA  CLOUDY    28  16  60 SW14      29.96R WCI  17
ASHTABULA      CLOUDY    28  16  60 SW10      29.94R WCI  19
AKRON-CANTON   CLOUDY    29  16  58 SW13      29.94R WCI  19
WOOSTER        CLOUDY    28  18  66 W14       29.96R WCI  17
MANSFIELD      CLOUDY    28  19  69 SW14      29.95R WCI  17
YOUNGSTOWN     CLOUDY    29  15  56 SW12      29.92R WCI  19
$$

OHZ042-051>053-060>062-070>072-077>081-110000-
  SOUTHWEST OHIO

CITY           SKY/WX    TMP DP  RH WIND       PRES   REMARKS
CINC-COVINGTON PTCLDY    33  20  58 SW7       30.00R WCI  27
CINC-LUNKEN    CLEAR     31  19  61 SW8       30.04R WCI  23
HAMILTON       CLEAR     33  19  56 SW5       30.02R WCI  29
DAYTON         CLOUDY    30  21  69 SW9       29.99R WCI  22
WRIGHT-PAT AFB CLOUDY    29  20  70 SW7       29.99R WCI  22
DAYTON GENERAL CLEAR     32  18  56 SW9       29.98R WCI  24
WILMINGTON     CLEAR     28  20  71 SW12      29.99R WCI  18
$$

OHZ036-037-039>041-045>050-054>059-063>069-073>076-082>088-110000-
  CENTRAL AND SOUTHEAST OHIO

CITY           SKY/WX    TMP DP  RH WIND       PRES   REMARKS
COLUMBUS       CLOUDY    32  21  64 SW7       29.99R WCI  26
OSU AIRPORT    MOCLDY    30  21  69 SW7       29.99R WCI  23
BOLTON FIELD   CLEAR     28  19  69 SW6       29.99R WCI  22
RICKENBACK AFB PTCLDY    29  20  71 SW5       30.00R WCI  23
NEWARK         CLOUDY    31  19  61 S5        29.98R WCI  26
MARION         CLOUDY    30  19  63 SW10      29.98R WCI  21
LANCASTER      CLEAR     29  19  66 S7        29.99R WCI  22
ZANESVILLE     PTCLDY    30  16  56 S8        29.98S WCI  22
NEW PHILLY     NOT AVBL
$$




USA.gov is the U.S. government's official web portal to all federal, state and local government web resources and services.